Location: Allen Fire Department Station 4
(33.1073°N, 96.6988°W)
Time: 10:48:26
(UTC+00:00)

Aurora 2 Rocket - Visible Passes

Search period start: 30 June 2022 00:00
Search period end: 10 July 2022 00:00
Orbit: 389 x 1720 km, 25.0° (Epoch: 30 June)

Date Brightness Start Highest point End Pass type
(mag) Time Alt. Az. Time Alt. Az. Time Alt. Az.
30 Jun 5.2 02:40:56 10° SSW 02:46:05 17° SSE 02:48:09 15° SE visible
30 Jun 5.7 04:33:08 10° SW 04:34:27 14° SW 04:34:27 14° SW visible
01 Jul 4.7 03:29:13 10° SW 03:36:15 27° SSE 03:36:15 27° SSE visible
02 Jul 5.2 02:25:28 10° SSW 02:32:48 24° SSE 02:37:55 13° ESE visible
02 Jul 4.8 04:18:44 10° SW 04:24:11 31° SSW 04:24:11 31° SSW visible
03 Jul 4.6 03:14:35 10° SW 03:23:01 35° S 03:25:42 28° SE visible
03 Jul 5.4 05:08:54 10° WSW 05:11:58 22° WSW 05:11:58 22° WSW visible
04 Jul 5.1 02:10:36 10° SW 02:19:21 32° SSE 02:26:33 10° ESE visible
04 Jul 4.2 04:04:30 10° WSW 04:13:11 44° S 04:13:17 44° S visible
04 Jul 6.1 05:59:25 10° WSW 05:59:32 10° WSW 05:59:32 10° WSW visible
05 Jul 4.6 03:00:11 10° WSW 03:09:35 43° S 03:14:26 22° ESE visible
05 Jul 4.8 04:54:54 10° WSW 05:00:41 35° SW 05:00:41 35° SW visible
06 Jul 5.0 01:56:05 10° SW 02:05:46 40° SSE 02:13:53 10° ESE visible
06 Jul 4.3 03:50:22 10° WSW 03:59:48 49° S 04:01:41 42° SE visible
06 Jul 5.7 05:45:34 10° WSW 05:47:54 18° WSW 05:47:54 18° WSW visible
07 Jul 4.7 02:45:58 10° WSW 02:56:01 49° S 03:02:33 17° ESE visible
07 Jul 4.5 04:40:54 10° WSW 04:48:46 44° SSW 04:48:46 44° SSW visible
08 Jul 4.5 03:36:19 10° WSW 03:46:16 52° S 03:49:31 36° SE visible
08 Jul 5.4 05:31:42 10° W 05:35:44 24° WSW 05:35:44 24° WSW visible
09 Jul 4.8 02:31:56 10° WSW 02:42:21 53° S 02:50:11 14° ESE visible
09 Jul 4.5 04:26:57 10° W 04:36:24 46° SSW 04:36:24 46° SSW visible
